{"data":{"norad_id":62278,"intl_designator":"2024-237M","name":"STARLINK-11487 [DTC]","alt_names":[],"object_type":"PAYLOAD","status":"ACTIVE","operator":null,"country":"US","launch_date":"2024-12-08","launch_site_code":"AFETR","launch_vehicle":null,"mission":null,"orbit_class":"UNKNOWN","rcs_meters":null,"size_class":null,"mass_kg":null,"dimensions":null,"purposes":["comms"],"wikipedia_slug":null,"has_3d_model":false,"image_url":null,"decayed_at":null,"tle_current":{"epoch":"2026-09-21T10:36:42.217056Z","epoch_age_seconds":96822,"freshness":"FRESH","line1":"1 62278U 24237M   26264.44215529  .00111894  00000+0  86313-3 0  9992","line2":"2 62278  43.0003 317.1594 0001211 245.8187 114.2554 15.70859209103830","mean_motion":15.70859209,"eccentricity":0.0001211,"inclination_deg":43.0003,"raan_deg":317.1594,"arg_perigee_deg":245.8187,"mean_anomaly_deg":114.2554,"bstar":0.00086313,"rev_number":10383,"period_min":91.669577499354,"perigee_km":355.62460191703,"apogee_km":357.255716505,"semimajor_km":6734.577159211,"source":"CELESTRAK","updated_at":"2026-09-22T09:00:49.567942Z"}}}